Powrót do katalogu

FENGYUN 1C DEB

LostSSO
NORAD 39536·DEBRIS·🇨🇳 China

Wystrzelony May 10, 1999 z Taiyuan Satellite Launch Center

Loading…

Następne Przeloty (najbliższe 24 godziny)

TLE

NieaktualneSource: Space-Track

Epoka: Jul 14, 2026, 08:23 UTC

1 39536U 99025EWD 26195.34948763  .00000475  00000-0  47907-3 0  9994
2 39536  99.7733 243.9331 0241692  69.5215 293.1697 13.70343794646894

Śledź FENGYUN 1C DEB w czasie rzeczywistym z AllMySat

Download on the App Store